Stündliche Wetter Otok

Heute, 14 April, Mittwoch

Zeit Temperatur Niederschläge Wind Luftdruck Luftfeuchtigkeit
00:00 +2°C° 0 mm 3 m/S 754 mmHg 75%
01:00 +2°C° 0 mm 3 m/S 754 mmHg 74%
02:00 +2°C° 0.2 mm 3 m/S 754 mmHg 79%
03:00 +1°C° 0.2 mm 3 m/S 754 mmHg 84%
04:00 +1°C° 0.2 mm 3 m/S 754 mmHg 89%
05:00 +1°C° 0.1 mm 3 m/S 754 mmHg 86%
06:00 +2°C° 0.1 mm 3 m/S 754 mmHg 82%
07:00 +1°C° 0.1 mm 4 m/S 754 mmHg 79%
08:00 +3°C° 0.2 mm 4 m/S 754 mmHg 78%
09:00 +3°C° 0.2 mm 4 m/S 754 mmHg 76%
10:00 +3°C° 0.2 mm 5 m/S 754 mmHg 75%
11:00 +3°C° 0.1 mm 5 m/S 754 mmHg 69%
12:00 +5°C° 0.1 mm 5 m/S 754 mmHg 63%
13:00 +5°C° 0.1 mm 6 m/S 753 mmHg 56%
14:00 +6°C° 0.1 mm 5 m/S 753 mmHg 56%
15:00 +6°C° 0.1 mm 5 m/S 753 mmHg 56%
16:00 +6°C° 0.1 mm 5 m/S 753 mmHg 56%
17:00 +5°C° 0.1 mm 5 m/S 753 mmHg 62%
18:00 +4°C° 0.1 mm 4 m/S 753 mmHg 69%
19:00 +3°C° 0.1 mm 4 m/S 754 mmHg 76%
20:00 +3°C° 0 mm 3 m/S 754 mmHg 78%
21:00 +2°C° 0 mm 3 m/S 754 mmHg 80%
22:00 +2°C° 0 mm 3 m/S 754 mmHg 83%
23:00 +2°C° 0 mm 3 m/S 753 mmHg 83%

Morgen, 15 April, Donnerstag

Zeit Temperatur Niederschläge Wind Luftdruck Luftfeuchtigkeit
00:00 +2°C° 0 mm 3 m/S 753 mmHg 82%
01:00 +2°C° 0 mm 3 m/S 753 mmHg 82%
02:00 +1°C° 0.1 mm 3 m/S 753 mmHg 87%
03:00 +1°C° 0.1 mm 3 m/S 753 mmHg 92%
04:00 -1°C° 0.1 mm 4 m/S 753 mmHg 96%
05:00 -1°C° 0.3 mm 4 m/S 753 mmHg 96%
06:00 -1°C° 0.3 mm 4 m/S 753 mmHg 97%
07:00 -1°C° 0.3 mm 5 m/S 753 mmHg 97%
08:00 -1°C° 0.7 mm 5 m/S 753 mmHg 97%
09:00 -1°C° 0.7 mm 5 m/S 753 mmHg 98%
10:00 0°C° 0.7 mm 5 m/S 753 mmHg 98%
11:00 0°C° 0.8 mm 5 m/S 753 mmHg 98%
12:00 0°C° 0.8 mm 5 m/S 753 mmHg 98%
13:00 0°C° 0.8 mm 5 m/S 753 mmHg 97%
14:00 -1°C° 0.7 mm 5 m/S 752 mmHg 98%
15:00 -1°C° 0.7 mm 5 m/S 752 mmHg 98%
16:00 -1°C° 0.7 mm 5 m/S 752 mmHg 98%
17:00 -1°C° 0.7 mm 5 m/S 752 mmHg 98%
18:00 -1°C° 0.7 mm 5 m/S 752 mmHg 98%
19:00 -1°C° 0.7 mm 4 m/S 752 mmHg 98%
20:00 -1°C° 0.3 mm 4 m/S 752 mmHg 98%
21:00 -1°C° 0.3 mm 4 m/S 751 mmHg 98%
22:00 0°C° 0.3 mm 3 m/S 751 mmHg 99%
23:00 0°C° 0.2 mm 3 m/S 751 mmHg 99%

übermorgen, 16 April, Freitag

Zeit Temperatur Niederschläge Wind Luftdruck Luftfeuchtigkeit
00:00 0°C° 0.2 mm 3 m/S 751 mmHg 99%
01:00 0°C° 0.2 mm 3 m/S 751 mmHg 99%
02:00 0°C° 0.2 mm 3 m/S 751 mmHg 99%
03:00 0°C° 0.2 mm 3 m/S 751 mmHg 99%
04:00 0°C° 0.2 mm 3 m/S 751 mmHg 99%
05:00 0°C° 0.2 mm 3 m/S 751 mmHg 99%
06:00 0°C° 0.2 mm 3 m/S 751 mmHg 99%
07:00 0°C° 0.2 mm 3 m/S 751 mmHg 99%
08:00 +1°C° 0.2 mm 3 m/S 751 mmHg 99%
09:00 +1°C° 0.2 mm 3 m/S 752 mmHg 99%
10:00 +1°C° 0.2 mm 3 m/S 752 mmHg 99%
11:00 +3°C° 0.1 mm 2 m/S 752 mmHg 99%
12:00 +3°C° 0.1 mm 2 m/S 752 mmHg 99%
13:00 +3°C° 0.1 mm 2 m/S 752 mmHg 99%
14:00 +3°C° 0.1 mm 2 m/S 752 mmHg 99%
15:00 +3°C° 0.1 mm 2 m/S 752 mmHg 99%
16:00 +3°C° 0.1 mm 2 m/S 752 mmHg 99%
17:00 +3°C° 0 mm 2 m/S 753 mmHg 99%
18:00 +3°C° 0 mm 2 m/S 753 mmHg 99%
19:00 +3°C° 0 mm 2 m/S 753 mmHg 99%
20:00 +3°C° 0 mm 2 m/S 753 mmHg 99%
21:00 +3°C° 0 mm 2 m/S 753 mmHg 99%
22:00 +3°C° 0 mm 2 m/S 753 mmHg 99%
23:00 +3°C° 0 mm 2 m/S 753 mmHg 99%

17 April, Samstag

Zeit Temperatur Niederschläge Wind Luftdruck Luftfeuchtigkeit
00:00 +3°C° 0 mm 2 m/S 753 mmHg 99%
01:00 +3°C° 0 mm 2 m/S 753 mmHg 99%
02:00 +3°C° 0 mm 2 m/S 753 mmHg 99%
03:00 +3°C° 0 mm 2 m/S 753 mmHg 99%
04:00 +3°C° 0 mm 2 m/S 753 mmHg 99%
05:00 +3°C° 0 mm 2 m/S 753 mmHg 99%
06:00 +3°C° 0 mm 2 m/S 753 mmHg 99%
07:00 +3°C° 0 mm 2 m/S 753 mmHg 98%
08:00 +4°C° 0.1 mm 2 m/S 753 mmHg 98%
09:00 +4°C° 0.1 mm 2 m/S 753 mmHg 98%
10:00 +3°C° 0.1 mm 3 m/S 753 mmHg 97%
11:00 +4°C° 0 mm 3 m/S 752 mmHg 97%
12:00 +4°C° 0 mm 3 m/S 752 mmHg 97%
13:00 +4°C° 0 mm 3 m/S 752 mmHg 96%
14:00 +4°C° 0.1 mm 3 m/S 752 mmHg 97%
15:00 +5°C° 0.1 mm 3 m/S 752 mmHg 97%
16:00 +6°C° 0.1 mm 2 m/S 752 mmHg 98%
17:00 +6°C° 0.1 mm 2 m/S 752 mmHg 98%
18:00 +5°C° 0.1 mm 2 m/S 752 mmHg 99%
19:00 +5°C° 0.1 mm 2 m/S 752 mmHg 99%
20:00 +5°C° 0 mm 2 m/S 752 mmHg 99%
21:00 +5°C° 0 mm 2 m/S 752 mmHg 98%
22:00 +5°C° 0 mm 2 m/S 752 mmHg 98%
23:00 +5°C° 0 mm 2 m/S 752 mmHg 98%

18 April, Sonntag

Zeit Temperatur Niederschläge Wind Luftdruck Luftfeuchtigkeit
00:00 +5°C° 0 mm 2 m/S 751 mmHg 98%
01:00 +5°C° 0 mm 2 m/S 751 mmHg 98%
02:00 +5°C° 0 mm 2 m/S 751 mmHg 98%
03:00 +5°C° 0 mm 2 m/S 751 mmHg 98%
04:00 +5°C° 0 mm 2 m/S 751 mmHg 98%
05:00 +6°C° 0 mm 2 m/S 751 mmHg 97%
06:00 +7°C° 0 mm 1 m/S 751 mmHg 96%
07:00 +7°C° 0 mm 1 m/S 751 mmHg 95%
08:00 +8°C° 0.1 mm 1 m/S 751 mmHg 92%
09:00 +9°C° 0.1 mm 1 m/S 751 mmHg 89%
10:00 +10°C° 0.1 mm 1 m/S 751 mmHg 86%
11:00 +11°C° 0.4 mm 1 m/S 751 mmHg 83%
12:00 +11°C° 0.4 mm 1 m/S 751 mmHg 80%
13:00 +12°C° 0.4 mm 1 m/S 751 mmHg 77%
14:00 +12°C° 0.4 mm 1 m/S 751 mmHg 75%
15:00 +12°C° 0.4 mm 1 m/S 751 mmHg 74%
16:00 +12°C° 0.4 mm 1 m/S 751 mmHg 72%
17:00 +12°C° 0.3 mm 1 m/S 751 mmHg 76%
18:00 +11°C° 0.3 mm 1 m/S 751 mmHg 79%
19:00 +10°C° 0.3 mm 1 m/S 751 mmHg 83%
20:00 +9°C° 0 mm 1 m/S 751 mmHg 84%
21:00 +8°C° 0 mm 2 m/S 751 mmHg 86%
22:00 +7°C° 0 mm 2 m/S 751 mmHg 88%
23:00 +8°C° 0 mm 1 m/S 751 mmHg 89%

19 April, Montag

Zeit Temperatur Niederschläge Wind Luftdruck Luftfeuchtigkeit
00:00 +7°C° 0 mm 1 m/S 751 mmHg 90%
01:00 +7°C° 0 mm 1 m/S 751 mmHg 91%
02:00 +7°C° 0 mm 1 m/S 751 mmHg 91%
03:00 +7°C° 0 mm 1 m/S 751 mmHg 91%
04:00 +7°C° 0 mm 1 m/S 751 mmHg 91%
05:00 +7°C° 0.1 mm 1 m/S 750 mmHg 92%
06:00 +7°C° 0.1 mm 2 m/S 750 mmHg 92%
07:00 +7°C° 0.1 mm 2 m/S 750 mmHg 92%
08:00 +7°C° 0.5 mm 2 m/S 750 mmHg 93%
09:00 +7°C° 0.5 mm 2 m/S 750 mmHg 94%
10:00 +7°C° 0.5 mm 2 m/S 750 mmHg 94%
11:00 +7°C° 0.3 mm 2 m/S 750 mmHg 94%
12:00 +7°C° 0.3 mm 2 m/S 749 mmHg 94%
13:00 +8°C° 0.3 mm 2 m/S 749 mmHg 94%
14:00 +8°C° 0.1 mm 2 m/S 749 mmHg 93%
15:00 +8°C° 0.1 mm 2 m/S 749 mmHg 93%
16:00 +9°C° 0.1 mm 1 m/S 749 mmHg 92%
17:00 +8°C° 0 mm 1 m/S 748 mmHg 93%
18:00 +8°C° 0 mm 1 m/S 748 mmHg 94%
19:00 +8°C° 0 mm 1 m/S 748 mmHg 95%
20:00 +7°C° 0 mm 1 m/S 748 mmHg 95%
21:00 +7°C° 0 mm 1 m/S 748 mmHg 96%
22:00 +7°C° 0 mm 1 m/S 748 mmHg 96%
23:00 +7°C° 0 mm 1 m/S 748 mmHg 96%
Mehr zeigen

Wir brauchen deine Erlaubnis

Meteoprog und unser Service Anbieter werden persönliche Daten aufbewahren, so wie Cookies, Geräte Bezeichnung oder ähnliche Technologien von deinem Gerät und Prozess, so wie Persönliche Daten Inhalte und Werbungen, genauso wie social Media und den Verkehr zu analysieren.

  • Aufbewahrung und/oder Zugang zu deiner Geräte Informationen.

    Cookies, Geräte Bezeichnung oder andere Informationen, können aufbewahrt oder Zugang zu deinem Gerät erhalten, für den Grund, der oben angegeben wird.

  • Personalisierte Werbung und Inhalte, Messungen, Einblick in das Publikum und Produkt Entwicklung.

    Werbungen und Inhalte können personalisiert werden, basierend auf ein Profil. Mehr Daten können besser personalisierte Werbungen und Inhalte hinzufügen. Werbung und Inhalte können gezeigt und gemessen werden. Einblicke über das Publikum, welche die Werbung gesehen haben und den Inhalt, können abgeleitet werden. So wie Daten können genutzt werden, um es zu verbessern oder die Benutzer Erfahrung zu verbessern das System und die Software.

Wenn du “Ich stimme zu” klickst, erlaubst du uns, die Cookies zu benutzen die Geräte Bezeichnung, den Web oder ähnliche Technologien zu benutzen. Deine Settings, können in deinem Gerät bei deinem Browser geändert werden.

Für den bestimmten Zweck, berechtigten Interessen beruhen darauf, mehr als auf den Inhalt. Du kannst mehr darüber in unseren Privaten und Cookie Politik lesen.